EW9439 Weather Reports


Display with metric or nautical units.
time (UTC)temp
F
wind
direction
speed
MPH
gust
MPH
rain 1hr
in
rain 24hr
in
rain mn
in
humidity
%
barometer
mb
20260504081509 46 120 0.0 0.0 0.00 0.00 0.00 86 1014.6
20260504044536 50 120 0.0 0.0 0.00 0.00 0.00 76 1015.4
20260504043039 51 120 0.0 0.0 0.00 0.00 0.00 76 1015.3
20260504041535 51 120 0.0 0.0 0.00 0.00 0.00 74 1015.5
20260504040042 52 120 0.0 0.0 0.00 0.00 0.00 74 1015.5
20260504034535 52 120 0.0 0.0 0.00 0.00 0.00 73 1015.5
20260504033050 52 120 0.0 0.0 0.00 0.00 0.00 71 1015.7
20260504031554 53 120 0.0 0.0 0.00 0.00 0.00 70 1015.6
20260504030111 53 120 0.0 0.0 0.00 0.00 0.00 70 1015.6
20260504024554 54 120 0.0 0.0 0.00 0.00 0.00 68 1015.5
20260504023058 55 120 0.0 0.0 0.00 0.00 0.00 67 1015.4
20260504021522 55 120 0.0 0.0 0.00 0.00 0.00 67 1015.3
20260504020024 56 120 0.0 0.0 0.00 0.00 0.00 63 1015.0
20260504014524 57 120 0.0 0.0 0.00 0.00 0.00 62 1014.8
20260504013036 58 120 0.0 0.0 0.00 0.00 0.00 60 1014.7
20260504011534 59 120 0.0 0.0 0.00 0.00 0.00 58 1014.6
20260504010039 60 120 0.0 0.0 0.00 0.00 0.00 57 1014.5
20260504004558 61 120 0.0 0.0 0.00 0.00 0.00 54 1014.4
20260504003100 62 120 0.0 0.0 0.00 0.00 0.00 53 1014.2
20260504003002 62 120 0.0 0.0 0.00 0.00 0.00 53 1014.2
20260504001544 63 120 0.0 0.0 0.00 0.00 0.00 52 1014.2
20260504000104 64 120 0.0 0.0 0.00 0.00 0.00 53 1014.1
20260503234530 65 120 0.0 0.0 0.00 0.00 0.00 47 1014.0
20260503233040 65 120 0.0 0.0 0.00 0.00 0.00 47 1014.0
20260503231539 65 120 0.0 0.0 0.00 0.00 0.00 46 1014.1
20260503230048 66 120 0.0 0.0 0.00 0.00 0.00 44 1014.2
20260503224518 67 120 0.0 0.0 0.00 0.00 0.00 44 1014.3
20260503223010 67 120 0.0 0.0 0.00 0.00 0.00 42 1014.2
20260503221511 67 120 0.0 1.0 0.00 0.00 0.00 41 1014.2
20260503220022 67 107 0.0 0.0 0.00 0.00 0.00 41 1014.3
20260503214503 67 99 0.0 0.0 0.00 0.00 0.00 39 1014.3
20260503213043 67 88 0.0 0.0 0.00 0.00 0.00 39 1014.4
20260503211548 67 88 0.0 0.0 0.00 0.00 0.00 40 1014.5
20260503210057 67 88 0.0 0.0 0.00 0.00 0.00 43 1014.5
20260503204503 67 78 0.0 0.0 0.00 0.00 0.00 40 1014.7
20260503203006 67 66 0.0 0.0 0.00 0.00 0.00 42 1015.0
20260503201506 67 312 0.0 1.0 0.00 0.00 0.00 40 1015.0
20260503200008 68 192 0.0 0.0 0.00 0.00 0.00 43 1015.4
20260503194512 68 200 0.0 0.0 0.00 0.00 0.00 40 1015.6
20260503193016 68 194 0.0 0.0 0.00 0.00 0.00 43 1015.9
20260503191557 67 195 0.0 2.0 0.00 0.00 0.00 41 1016.1
20260503190005 67 92 0.0 0.0 0.00 0.00 0.00 45 1016.3
20260503184512 66 275 0.0 1.0 0.00 0.00 0.00 45 1016.5
20260503183008 66 287 0.0 0.0 0.00 0.00 0.00 46 1016.8
20260503181509 65 288 0.0 2.0 0.00 0.00 0.00 48 1016.8
20260503180012 65 288 0.0 0.0 0.00 0.00 0.00 48 1016.8
20260503174511 64 288 0.0 0.0 0.00 0.00 0.00 51 1016.9
20260503173059 64 171 0.0 0.0 0.00 0.00 0.00 50 1017.0
20260503173002 64 171 0.0 0.0 0.00 0.00 0.00 50 1017.0
20260503171510 65 178 0.0 0.0 0.00 0.00 0.00 49 1017.2